Location: Mascot Post Office (historical)
(40.2645°N, 99.5462°W)
Time: 02:00:31
(UTC+00:00)

MOS 1 - Pass Details

Date: 14 July 2020
Orbit: 879 x 891 km, 99.2° (Epoch: 14 August)

Event Time Altitude Azimuth Distance (km) Brightness Sun altitude
Rises 02:29:55 0° 167° (SSE) 3,468 6.9 -4.5°
Reaches altitude 10° 02:32:18 10° 168° (SSE) 2,532 6.3 -4.8°
Maximum altitude 02:37:57 82° 256° (WSW) 894 4.5 -5.7°
Drops below altitude 10° 02:43:37 10° 344° (NNW) 2,543 7.6 -6.6°
Sets 02:46:01 0° 346° (NNW) 3,485 8.3 -7.0°
